Aérodrome :
LOGIN :

S'inscrire | Disclaimer

   EN    FR    IT 

 










Légende :    VFR   VFR Marginal   IFR   IFR Intensif   IFR Très Intensif
Visi : 
Plafond : 
>= 8 km
>= 3000ft
5 à 8 km
1000 à 3000 ft
1500m à 5 km
500 à 1000 ft
800 à 1500m
200 à 500 ft
< 800m
< 200 ft
Symboles :   Orages  Brouillard  Fortes neiges  Fortes précipitations  Vent > 20 kt
SIGMETs :   Divers  Orages  Givrage  Turbulence  Onde Orograph.  Cendres Volcan.






- Altitude de l'aérodrome : 66 ft
- Code IATA : EJH


OEWJ - Wejh

DERNIER METAR :
  • 110400Z 09003KT CAVOK 27/21 Q1005 NOSIG

METARs EXPIRÉS :
  • 110300Z 02003KT CAVOK 26/20 Q1005 NOSIG
  • 110200Z 01005KT CAVOK 26/22 Q1004 NOSIG

TAF TAF OEWJ
Valide du 11 à 00h jusqu'au 12 à 06h UTC


102300Z 1100/1206 VRB03KT CAVOK
BECMG 1106/1108 27014KT
FIR OEJD / Asie



MET'MAP, la Météo Aéronautique d'un coup d'oeil ! - Copyright ORBIFLY Décembre 2007 - Disclaimer

ORBIFLY MET'MAP TEAM :

Programmation & Développement : Alexandra Zaïnal
Sur une idée originale de : Baudouin d'Aumeries
Assistance à la programmation : Marc-Olivier Méhu
Soutien technique & logistique : Manuel Goepfert

Contact : metmap@orbifly.com




SOURCES & CREDITS :

   NOAA